CW6421 Weather Reports


time (UTC)temp
C
wind
direction
speed
KPH
gust
KPH
rain 1hr
cm
rain 24hr
cm
rain mn
cm
humidity
%
barometer
mb
20260506180526 11 48 12.9 20.9 0.00 1.65 0.00 88 1007.1
20260506175527 11 40 17.7 24.1 0.00 1.65 0.00 88 1007.1
20260506174530 12 60 16.1 24.1 0.00 1.65 0.00 89 1007.1
20260506173526 12 42 19.3 24.1 0.00 1.65 0.00 89 1007.1
20260506172527 12 48 16.1 22.5 0.00 1.65 0.00 88 1007.1
20260506171528 12 52 16.1 20.9 0.00 1.68 0.00 89 1007.1
20260506170528 12 60 14.5 19.3 0.00 1.68 0.00 88 1007.2
20260506165527 12 55 14.5 17.7 0.00 1.68 0.00 88 1007.2
20260506164530 12 34 16.1 17.7 0.00 1.68 0.00 88 1007.2
20260506163528 12 24 14.5 20.9 0.00 1.68 0.00 89 1007.2
20260506162528 12 31 14.5 17.7 0.00 1.68 0.00 89 1007.2
20260506161529 12 40 16.1 19.3 0.00 1.68 0.00 89 1007.2
20260506160527 12 23 16.1 22.5 0.00 1.68 0.00 89 1007.3
20260506155527 12 39 14.5 25.7 0.00 1.68 0.00 89 1007.3
20260506154530 12 40 9.7 22.5 0.00 1.68 0.00 89 1007.3
20260506153528 12 44 11.3 25.7 0.00 1.68 0.00 89 1007.3
20260506152527 12 48 12.9 24.1 0.00 1.68 0.00 90 1007.3
20260506151530 12 40 12.9 25.7 0.00 1.68 0.00 90 1007.3
20260506150528 12 37 14.5 19.3 0.00 1.68 0.00 90 1007.1
20260506145527 12 25 12.9 19.3 0.00 1.68 0.00 90 1007.1
20260506144529 12 26 12.9 19.3 0.00 1.68 0.00 91 1007.1
20260506143527 12 36 14.5 20.9 0.00 1.68 0.00 91 1007.1
20260506142527 12 30 14.5 20.9 0.00 1.68 0.00 91 1007.1
20260506140527 12 21 16.1 17.7 0.00 1.68 0.00 91 1006.9
20260506135527 12 17 16.1 19.3 0.00 1.68 0.00 91 1006.9
20260506134530 12 10 11.3 17.7 0.00 1.68 0.00 91 1006.9
20260506133528 12 9 9.7 17.7 0.00 1.68 0.00 91 1006.9
20260506132528 12 3 11.3 19.3 0.00 1.68 0.00 92 1006.9
20260506131530 12 1 12.9 17.7 0.00 1.68 0.00 92 1006.9
20260506130528 12 17 12.9 25.7 0.00 1.68 0.00 92 1006.9
20260506125527 12 11 12.9 22.5 0.00 1.68 0.00 92 1006.9
20260506124531 12 11 11.3 25.7 0.00 1.68 0.00 92 1006.9
20260506121530 12 33 8.0 22.5 0.00 1.68 0.00 92 1006.9
20260506120528 12 35 6.4 24.1 0.00 1.68 0.00 92 1006.3
20260506115526 12 26 8.0 25.7 0.03 1.68 0.00 92 1006.3
20260506112527 12 11 12.9 22.5 0.05 1.65 0.00 92 1006.3
20260506111530 12 10 14.5 24.1 0.08 1.65 0.00 92 1006.3
20260506110528 12 350 12.9 27.4 0.08 1.65 0.00 93 1005.7
20260506105528 12 9 16.1 27.4 0.10 1.65 0.00 93 1005.7
20260506103527 12 1 16.1 27.4 0.10 1.63 0.00 93 1005.7
20260506102527 12 1 19.3 22.5 0.10 1.60 0.00 93 1005.1
20260506101529 12 351 16.1 20.9 0.10 1.60 0.00 93 1005.1
20260506100527 12 354 14.5 19.3 0.10 1.57 0.00 93 1005.1
20260506095527 12 355 17.7 20.9 0.13 1.55 0.00 93 1005.1
20260506094530 11 6 17.7 20.9 0.15 1.55 0.00 93 1005.1
20260506093528 11 4 19.3 22.5 0.15 1.52 0.00 93 1005.1
20260506092527 11 6 20.9 22.5 0.18 1.50 0.00 93 1005.1
20260506091530 11 18 12.9 19.3 0.20 1.50 0.00 93 1005.1
20260506090528 11 2 12.9 24.1 0.23 1.47 0.00 93 1004.7
20260506085527 11 1 9.7 24.1 0.20 1.45 0.00 93 1004.7
20260506083527 11 31 9.7 27.4 0.18 1.37 0.00 93 1004.7
20260506081530 11 29 11.3 25.7 0.15 1.30 0.00 93 1004.7
20260506073528 11 34 12.9 24.1 0.13 1.19 0.00 93 1004.5
20260506071531 11 57 16.1 22.5 0.13 1.14 0.00 93 1004.5
20260506050528 11 48 19.3 22.5 0.18 0.94 0.00 92 1005.1
20260506043527 11 31 16.1 22.5 0.20 0.84 0.00 92 1005.1
20260506042529 11 41 17.7 22.5 0.20 0.81 0.00 91 1005.1
20260506041529 11 37 14.5 22.5 0.20 0.79 0.00 91 1005.1
20260506040526 11 40 16.1 24.1 0.20 0.76 0.00 91 1005.5
20260506034528 11 20 17.7 25.7 0.25 0.69 0.00 91 1005.5
20260506033526 11 21 12.9 25.7 0.25 0.64 0.00 91 1005.5
20260506032528 11 39 14.5 27.4 0.28 0.61 0.00 91 1005.5
20260506031528 11 23 11.3 27.4 0.30 0.58 0.00 91 1005.5
20260506030526 11 27 11.3 27.4 0.30 0.53 0.00 90 1005.9
20260506025527 11 19 11.3 27.4 0.28 0.48 0.00 90 1005.9
20260506024529 11 36 14.5 27.4 0.25 0.43 0.00 90 1005.9
20260506023526 11 43 12.9 30.6 0.23 0.38 0.00 90 1005.9
20260506022526 11 32 12.9 27.4 0.20 0.33 0.00 89 1005.9
20260506021528 11 53 17.7 27.4 0.18 0.28 0.00 89 1005.9
20260506020526 12 49 17.7 22.5 0.15 0.23 0.00 89 1006.6
20260506015529 12 51 17.7 20.9 0.13 0.20 0.00 89 1006.6
20260506014529 12 55 17.7 20.9 0.10 0.18 0.00 89 1006.6
20260506013527 12 64 17.7 19.3 0.08 0.15 0.00 89 1006.6
20260506012528 12 54 16.1 22.5 0.08 0.13 0.00 89 1006.6
20260506011529 12 54 12.9 20.9 0.05 0.10 0.00 88 1006.6
20260506010527 12 51 12.9 19.3 0.03 0.10 0.00 88 1007.1
20260506005525 12 65 16.1 20.9 0.03 0.08 0.00 88 1007.1
20260506004529 12 47 9.7 19.3 0.03 0.08 0.00 87 1007.1
20260506003527 12 43 9.7 22.5 0.03 0.08 0.00 87 1007.1
20260506002526 12 49 11.3 22.5 0.03 0.08 0.00 87 1007.1
20260506001529 12 38 12.9 22.5 0.03 0.08 0.00 87 1007.1
20260506000527 12 31 14.5 25.7 0.00 0.05 0.00 86 1007.5
20260505234528 12 59 16.1 25.7 0.00 0.05 0.00 86 1007.5
20260505233527 12 40 16.1 22.5 0.00 0.05 0.00 85 1007.5
20260505232527 12 41 16.1 24.1 0.00 0.05 0.00 85 1007.5
20260505231527 13 34 12.9 24.1 0.00 0.05 0.00 84 1007.5
20260505230527 13 25 14.5 27.4 0.00 0.05 0.00 83 1007.7
20260505225527 13 29 12.9 29.0 0.00 0.05 0.00 83 1007.7
20260505224530 13 37 19.3 22.5 0.00 0.05 0.00 83 1007.7
20260505223526 13 41 22.5 24.1 0.00 0.05 0.00 82 1007.7
20260505222527 13 48 17.7 27.4 0.00 0.05 0.00 82 1007.7
20260505221529 13 30 19.3 27.4 0.00 0.05 0.00 82 1007.7
20260505220527 13 39 14.5 22.5 0.00 0.05 0.00 81 1007.9
20260505215528 13 43 19.3 25.7 0.00 0.05 0.00 81 1007.9
20260505214530 13 20 19.3 27.4 0.00 0.05 0.00 81 1007.9
20260505213527 13 24 17.7 22.5 0.00 0.05 0.00 81 1007.9
20260505212526 13 14 17.7 24.1 0.00 0.05 0.00 81 1007.9
20260505210528 14 18 19.3 24.1 0.00 0.05 0.00 80 1007.6
20260505205528 14 28 19.3 22.5 0.00 0.05 0.00 80 1007.6
20260505204529 14 11 14.5 20.9 0.00 0.05 0.00 80 1007.6
20260505203526 14 21 16.1 20.9 0.00 0.05 0.00 80 1007.6
20260505202528 15 12 14.5 20.9 0.00 0.05 0.00 79 1007.6
20260505201529 15 34 11.3 25.7 0.00 0.05 0.00 79 1007.6
20260505200528 15 40 12.9 20.9 0.00 0.05 0.00 78 1007.5
20260505195527 15 39 12.9 22.5 0.00 0.05 0.00 78 1007.5
20260505194531 15 40 12.9 22.5 0.00 0.05 0.00 78 1007.5
20260505193526 15 44 14.5 20.9 0.00 0.05 0.00 77 1007.5
20260505192526 15 35 12.9 20.9 0.00 0.05 0.00 77 1007.5
20260505190528 16 30 14.5 17.7 0.00 0.05 0.00 75 1007.5
20260505185527 16 34 16.1 20.9 0.00 0.05 0.00 75 1007.5
20260505183526 17 40 9.7 19.3 0.00 0.05 0.00 74 1007.5
20260505182527 17 40 14.5 20.9 0.03 0.05 0.00 73 1007.5
20260505181531 17 71 12.9 20.9 0.03 0.05 0.00 73 1007.5